Year,Month,Day,Hour,Minute,Value (Times are PST for temperature in C)
2014,05,15,00,00,16.50
2014,05,15,00,01,16.50
2014,05,15,00,02,16.50
2014,05,15,00,03,16.50
2014,05,15,00,04,16.50
2014,05,15,00,05,16.50
2014,05,15,00,06,16.50
2014,05,15,00,07,16.50
2014,05,15,00,08,16.60
2014,05,15,00,09,16.50
2014,05,15,00,10,16.60
2014,05,15,00,11,16.60
2014,05,15,00,12,16.60
2014,05,15,00,13,16.60
2014,05,15,00,14,16.60
2014,05,15,00,15,16.60
2014,05,15,00,16,16.70
2014,05,15,00,17,16.70
2014,05,15,00,18,16.80
2014,05,15,00,19,16.90
2014,05,15,00,20,17.00
2014,05,15,00,21,17.00
2014,05,15,00,22,17.10
2014,05,15,00,23,17.10
2014,05,15,00,24,17.20
2014,05,15,00,25,17.20
2014,05,15,00,26,17.30
2014,05,15,00,27,17.30
2014,05,15,00,28,17.40
2014,05,15,00,29,17.40
2014,05,15,00,30,17.50
2014,05,15,00,31,17.60
2014,05,15,00,32,17.70
2014,05,15,00,33,17.70
2014,05,15,00,34,17.70
2014,05,15,00,35,17.80
2014,05,15,00,36,17.80
2014,05,15,00,37,17.80
2014,05,15,00,38,17.80
2014,05,15,00,39,17.90
2014,05,15,00,40,17.90
2014,05,15,00,41,17.90
2014,05,15,00,42,17.90
2014,05,15,00,43,17.90
2014,05,15,00,44,17.90
2014,05,15,00,45,17.90
2014,05,15,00,46,17.90
2014,05,15,00,47,17.80
2014,05,15,00,48,17.80
2014,05,15,00,49,17.80
2014,05,15,00,50,17.70
2014,05,15,00,51,17.70
2014,05,15,00,52,17.70
2014,05,15,00,53,17.70
2014,05,15,00,54,17.70
2014,05,15,00,55,17.80
2014,05,15,00,56,17.80
2014,05,15,00,57,17.80
2014,05,15,00,58,17.80
2014,05,15,00,59,17.80
2014,05,15,01,00,17.80
2014,05,15,01,01,17.70
2014,05,15,01,02,17.70
2014,05,15,01,03,17.60
2014,05,15,01,04,17.50
2014,05,15,01,05,17.40
2014,05,15,01,06,17.40
2014,05,15,01,07,17.30
2014,05,15,01,08,17.20
2014,05,15,01,09,17.10
2014,05,15,01,10,17.00
2014,05,15,01,11,16.90
2014,05,15,01,12,16.80
2014,05,15,01,13,16.70
2014,05,15,01,14,16.70
2014,05,15,01,15,16.60
2014,05,15,01,16,16.50
2014,05,15,01,17,16.50
2014,05,15,01,18,16.40
2014,05,15,01,19,16.40
2014,05,15,01,20,16.30
2014,05,15,01,21,16.20
2014,05,15,01,22,16.20
2014,05,15,01,23,16.20
2014,05,15,01,24,16.10
2014,05,15,01,25,16.10
2014,05,15,01,26,16.10
2014,05,15,01,27,16.00
2014,05,15,01,28,16.00
2014,05,15,01,29,15.90
2014,05,15,01,30,15.90
2014,05,15,01,31,15.90
2014,05,15,01,32,16.00
2014,05,15,01,33,16.00
2014,05,15,01,34,16.00
2014,05,15,01,35,16.00
2014,05,15,01,36,15.90
2014,05,15,01,37,15.90
2014,05,15,01,38,15.90
2014,05,15,01,39,15.90
2014,05,15,01,40,15.90
2014,05,15,01,41,15.90
2014,05,15,01,42,15.90
2014,05,15,01,43,15.90
2014,05,15,01,44,15.90
2014,05,15,01,45,15.90
2014,05,15,01,46,15.80
2014,05,15,01,47,15.80
2014,05,15,01,48,15.80
2014,05,15,01,49,15.70
2014,05,15,01,50,15.70
2014,05,15,01,51,15.70
2014,05,15,01,52,15.70
2014,05,15,01,53,15.70
2014,05,15,01,54,15.70
2014,05,15,01,55,15.60
2014,05,15,01,56,15.60
2014,05,15,01,57,15.60
2014,05,15,01,58,15.60
2014,05,15,01,59,15.60
2014,05,15,02,00,15.60
2014,05,15,02,01,15.60
2014,05,15,02,02,15.60
2014,05,15,02,03,15.60
2014,05,15,02,04,15.60
2014,05,15,02,05,15.60
2014,05,15,02,06,15.60
2014,05,15,02,07,15.60
2014,05,15,02,08,15.50
2014,05,15,02,09,15.50
2014,05,15,02,10,15.50
2014,05,15,02,11,15.40
2014,05,15,02,12,15.40
2014,05,15,02,13,15.30
2014,05,15,02,14,15.30
2014,05,15,02,15,15.30
2014,05,15,02,16,15.30
2014,05,15,02,17,15.20
2014,05,15,02,18,15.20
2014,05,15,02,19,15.20
2014,05,15,02,20,15.10
2014,05,15,02,21,15.10
2014,05,15,02,22,15.10
2014,05,15,02,23,15.00
2014,05,15,02,24,15.00
2014,05,15,02,25,15.00
2014,05,15,02,26,15.00
2014,05,15,02,27,15.00
2014,05,15,02,28,15.00
2014,05,15,02,29,15.00
2014,05,15,02,30,15.00
2014,05,15,02,31,15.00
2014,05,15,02,32,15.00
2014,05,15,02,33,15.00
2014,05,15,02,34,15.00
2014,05,15,02,35,15.00
2014,05,15,02,36,15.00
2014,05,15,02,37,15.00
2014,05,15,02,38,15.00
2014,05,15,02,39,15.00
2014,05,15,02,40,15.00
2014,05,15,02,41,15.00
2014,05,15,02,42,15.00
2014,05,15,02,43,15.00
2014,05,15,02,44,15.00
2014,05,15,02,45,15.00
2014,05,15,02,46,15.00
2014,05,15,02,47,15.00
2014,05,15,02,48,15.10
2014,05,15,02,49,15.10
2014,05,15,02,50,15.10
2014,05,15,02,51,15.10
2014,05,15,02,52,15.20
2014,05,15,02,53,15.20
2014,05,15,02,54,15.10
2014,05,15,02,55,15.10
2014,05,15,02,56,15.10
2014,05,15,02,57,15.20
2014,05,15,02,58,15.20
2014,05,15,02,59,15.20
2014,05,15,03,00,15.20
2014,05,15,03,01,15.30
2014,05,15,03,02,15.30
2014,05,15,03,03,15.40
2014,05,15,03,04,15.50
2014,05,15,03,05,15.50
2014,05,15,03,06,15.60
2014,05,15,03,07,15.60
2014,05,15,03,08,15.70
2014,05,15,03,09,15.70
2014,05,15,03,10,15.70
2014,05,15,03,11,15.70
2014,05,15,03,12,15.70
2014,05,15,03,13,15.60
2014,05,15,03,14,15.60
2014,05,15,03,15,15.60
2014,05,15,03,16,15.50
2014,05,15,03,17,15.50
2014,05,15,03,18,15.40
2014,05,15,03,19,15.40
2014,05,15,03,20,15.40
2014,05,15,03,21,15.30
2014,05,15,03,22,15.30
2014,05,15,03,23,15.30
2014,05,15,03,24,15.20
2014,05,15,03,25,15.20
2014,05,15,03,26,15.10
2014,05,15,03,27,15.00
2014,05,15,03,28,15.00
2014,05,15,03,29,15.00
2014,05,15,03,30,15.00
2014,05,15,03,31,15.00
2014,05,15,03,32,15.00
2014,05,15,03,33,15.00
2014,05,15,03,34,15.00
2014,05,15,03,35,15.00
2014,05,15,03,36,15.00
2014,05,15,03,37,15.00
2014,05,15,03,38,15.00
2014,05,15,03,39,15.00
2014,05,15,03,40,15.00
2014,05,15,03,41,15.00
2014,05,15,03,42,15.00
2014,05,15,03,43,15.00
2014,05,15,03,44,15.10
2014,05,15,03,45,15.10
2014,05,15,03,46,15.20
2014,05,15,03,47,15.30
2014,05,15,03,48,15.40
2014,05,15,03,49,15.50
2014,05,15,03,50,15.60
2014,05,15,03,51,15.70
2014,05,15,03,52,15.70
2014,05,15,03,53,15.80
2014,05,15,03,54,15.80
2014,05,15,03,55,15.70
2014,05,15,03,56,15.70
2014,05,15,03,57,15.70
2014,05,15,03,58,15.60
2014,05,15,03,59,15.50
2014,05,15,04,00,15.50
2014,05,15,04,01,15.40
2014,05,15,04,02,15.30
2014,05,15,04,03,15.30
2014,05,15,04,04,15.30
2014,05,15,04,05,15.20
2014,05,15,04,06,15.20
2014,05,15,04,07,15.20
2014,05,15,04,08,15.10
2014,05,15,04,09,15.10
2014,05,15,04,10,15.10
2014,05,15,04,11,15.10
2014,05,15,04,12,15.00
2014,05,15,04,13,15.00
2014,05,15,04,14,15.00
2014,05,15,04,15,15.00
2014,05,15,04,16,15.10
2014,05,15,04,17,15.10
2014,05,15,04,18,15.20
2014,05,15,04,19,15.20
2014,05,15,04,20,15.20
2014,05,15,04,21,15.30
2014,05,15,04,22,15.30
2014,05,15,04,23,15.30
2014,05,15,04,24,15.40
2014,05,15,04,25,15.40
2014,05,15,04,26,15.40
2014,05,15,04,27,15.50
2014,05,15,04,28,15.50
2014,05,15,04,29,15.50
2014,05,15,04,30,15.60
2014,05,15,04,31,15.60
2014,05,15,04,32,15.70
2014,05,15,04,33,15.70
2014,05,15,04,34,15.80
2014,05,15,04,35,15.80
2014,05,15,04,36,15.80
2014,05,15,04,37,15.70
2014,05,15,04,38,15.70
2014,05,15,04,39,15.70
2014,05,15,04,40,15.70
2014,05,15,04,41,15.60
2014,05,15,04,42,15.60
2014,05,15,04,43,15.50
2014,05,15,04,44,15.50
2014,05,15,04,45,15.40
2014,05,15,04,46,15.40
2014,05,15,04,47,15.30
2014,05,15,04,48,15.30
2014,05,15,04,49,15.20
2014,05,15,04,50,15.20
2014,05,15,04,51,15.20
2014,05,15,04,52,15.20
2014,05,15,04,53,15.20
2014,05,15,04,54,15.20
2014,05,15,04,55,15.20
2014,05,15,04,56,15.20
2014,05,15,04,57,15.20
2014,05,15,04,58,15.20
2014,05,15,04,59,15.20
2014,05,15,05,00,15.20
2014,05,15,05,01,15.20
2014,05,15,05,02,15.20
2014,05,15,05,03,15.10
2014,05,15,05,04,15.10
2014,05,15,05,05,15.10
2014,05,15,05,06,15.10
2014,05,15,05,07,15.00
2014,05,15,05,08,15.00
2014,05,15,05,09,15.00
2014,05,15,05,10,15.00
2014,05,15,05,11,15.00
2014,05,15,05,12,15.00
2014,05,15,05,13,15.00
2014,05,15,05,14,15.00
2014,05,15,05,15,15.00
2014,05,15,05,16,15.00
2014,05,15,05,17,15.00
2014,05,15,05,18,14.90
2014,05,15,05,19,14.90
2014,05,15,05,20,14.90
2014,05,15,05,21,14.90
2014,05,15,05,22,14.90
2014,05,15,05,23,14.80
2014,05,15,05,24,14.80
2014,05,15,05,25,14.70
2014,05,15,05,26,14.60
2014,05,15,05,27,14.60
2014,05,15,05,28,14.50
2014,05,15,05,29,14.50
2014,05,15,05,30,14.50
2014,05,15,05,31,14.50
2014,05,15,05,32,14.50
2014,05,15,05,33,14.50
2014,05,15,05,34,14.50
2014,05,15,05,35,14.40
2014,05,15,05,36,14.40
2014,05,15,05,37,14.40
2014,05,15,05,38,14.40
2014,05,15,05,39,14.40
2014,05,15,05,40,14.40
2014,05,15,05,41,14.40
2014,05,15,05,42,14.40
2014,05,15,05,43,14.40
2014,05,15,05,44,14.40
2014,05,15,05,45,14.40
2014,05,15,05,46,14.40
2014,05,15,05,47,14.40
2014,05,15,05,48,14.40
2014,05,15,05,49,14.30
2014,05,15,05,50,14.30
2014,05,15,05,51,14.30
2014,05,15,05,52,14.20
2014,05,15,05,53,14.20
2014,05,15,05,54,14.20
2014,05,15,05,55,14.20
2014,05,15,05,56,14.20
2014,05,15,05,57,14.20
2014,05,15,05,58,14.20
2014,05,15,05,59,14.20
2014,05,15,06,00,14.20
2014,05,15,06,01,14.20
2014,05,15,06,02,14.20
2014,05,15,06,03,14.20
2014,05,15,06,04,14.20
2014,05,15,06,05,14.30
2014,05,15,06,06,14.30
2014,05,15,06,07,14.40
2014,05,15,06,08,14.50
2014,05,15,06,09,14.60
2014,05,15,06,10,14.70
2014,05,15,06,11,14.80
2014,05,15,06,12,14.90
2014,05,15,06,13,15.00
2014,05,15,06,14,15.00
2014,05,15,06,15,15.00
2014,05,15,06,16,15.00
2014,05,15,06,17,15.00
2014,05,15,06,18,15.00
2014,05,15,06,19,15.00
2014,05,15,06,20,14.90
2014,05,15,06,21,14.90
2014,05,15,06,22,14.80
2014,05,15,06,23,14.80
2014,05,15,06,24,14.80
2014,05,15,06,25,14.70
2014,05,15,06,26,14.70
2014,05,15,06,27,14.60
2014,05,15,06,28,14.60
2014,05,15,06,29,14.60
2014,05,15,06,30,14.50
2014,05,15,06,31,14.50
2014,05,15,06,32,14.40
2014,05,15,06,33,14.40
2014,05,15,06,34,14.40
2014,05,15,06,35,14.50
2014,05,15,06,36,14.50
2014,05,15,06,37,14.50
2014,05,15,06,38,14.60
2014,05,15,06,39,14.60
2014,05,15,06,40,14.70
2014,05,15,06,41,14.70
2014,05,15,06,42,14.80
2014,05,15,06,43,14.80
2014,05,15,06,44,14.90
2014,05,15,06,45,14.90
2014,05,15,06,46,15.00
2014,05,15,06,47,15.00
2014,05,15,06,48,15.00
2014,05,15,06,49,15.00
2014,05,15,06,50,15.00
2014,05,15,06,51,15.00
2014,05,15,06,52,15.00
2014,05,15,06,53,15.00
2014,05,15,06,54,15.00
2014,05,15,06,55,15.00
2014,05,15,06,56,15.00
2014,05,15,06,57,15.00
2014,05,15,06,58,15.00
2014,05,15,06,59,15.00
2014,05,15,07,00,15.00
2014,05,15,07,01,15.00
2014,05,15,07,02,15.10
2014,05,15,07,03,15.20
2014,05,15,07,04,15.30
2014,05,15,07,05,15.30
2014,05,15,07,06,15.40
2014,05,15,07,07,15.50
2014,05,15,07,08,15.50
2014,05,15,07,09,15.60
2014,05,15,07,10,15.60
2014,05,15,07,11,15.70
2014,05,15,07,12,15.70
2014,05,15,07,13,15.80
2014,05,15,07,14,15.80
2014,05,15,07,15,15.80
2014,05,15,07,16,15.80
2014,05,15,07,17,15.80
2014,05,15,07,18,15.90
2014,05,15,07,19,15.90
2014,05,15,07,20,15.90
2014,05,15,07,21,15.90
2014,05,15,07,22,15.90
2014,05,15,07,23,16.00
2014,05,15,07,24,16.00
2014,05,15,07,25,16.00
2014,05,15,07,26,16.10
2014,05,15,07,27,16.10
2014,05,15,07,28,16.10
2014,05,15,07,29,16.10
2014,05,15,07,30,16.20
2014,05,15,07,31,16.20
2014,05,15,07,32,16.20
2014,05,15,07,33,16.20
2014,05,15,07,34,16.20
2014,05,15,07,35,16.20
2014,05,15,07,36,16.30
2014,05,15,07,37,16.30
2014,05,15,07,38,16.30
2014,05,15,07,39,16.30
2014,05,15,07,40,16.30
2014,05,15,07,41,16.30
2014,05,15,07,42,16.40
2014,05,15,07,43,16.40
2014,05,15,07,44,16.40
2014,05,15,07,45,16.40
2014,05,15,07,46,16.50
2014,05,15,07,47,16.50
2014,05,15,07,48,16.50
2014,05,15,07,49,16.50
2014,05,15,07,50,16.50
2014,05,15,07,51,16.50
2014,05,15,07,52,16.50
2014,05,15,07,53,16.50
2014,05,15,07,54,16.50
2014,05,15,07,55,16.60
2014,05,15,07,56,16.60
2014,05,15,07,57,16.60
2014,05,15,07,58,16.60
2014,05,15,07,59,16.70
2014,05,15,08,00,16.70
2014,05,15,08,01,16.80
2014,05,15,08,02,16.80
2014,05,15,08,03,16.80
2014,05,15,08,04,16.80
2014,05,15,08,05,16.90
2014,05,15,08,06,16.90
2014,05,15,08,07,16.90
2014,05,15,08,08,17.00
2014,05,15,08,09,17.00
2014,05,15,08,10,17.00
2014,05,15,08,11,17.10
2014,05,15,08,12,17.10
2014,05,15,08,13,17.20
2014,05,15,08,14,17.20
2014,05,15,08,15,17.30
2014,05,15,08,16,17.30
2014,05,15,08,17,17.40
2014,05,15,08,18,17.40
2014,05,15,08,19,17.50
2014,05,15,08,20,17.60
2014,05,15,08,21,17.70
2014,05,15,08,22,17.80
2014,05,15,08,23,17.90
2014,05,15,08,24,18.10
2014,05,15,08,25,18.20
2014,05,15,08,26,18.30
2014,05,15,08,27,18.40
2014,05,15,08,28,18.60
2014,05,15,08,29,18.70
2014,05,15,08,30,18.80
2014,05,15,08,31,18.90
2014,05,15,08,32,19.00
2014,05,15,08,33,19.10
2014,05,15,08,34,19.10
2014,05,15,08,35,19.20
2014,05,15,08,36,19.20
2014,05,15,08,37,19.20
2014,05,15,08,38,19.30
2014,05,15,08,39,19.30
2014,05,15,08,40,19.40
2014,05,15,08,41,19.40
2014,05,15,08,42,19.40
2014,05,15,08,43,19.50
2014,05,15,08,44,19.50
2014,05,15,08,45,19.50
2014,05,15,08,46,19.50
2014,05,15,08,47,19.60
2014,05,15,08,48,19.50
2014,05,15,08,49,19.50
2014,05,15,08,50,19.50
2014,05,15,08,51,19.50
2014,05,15,08,52,19.40
2014,05,15,08,53,19.40
2014,05,15,08,54,19.40
2014,05,15,08,55,19.40
2014,05,15,08,56,19.40
2014,05,15,08,57,19.30
2014,05,15,08,58,19.30
2014,05,15,08,59,19.30
2014,05,15,09,00,19.30
2014,05,15,09,01,19.40
2014,05,15,09,02,19.40
2014,05,15,09,03,19.40
2014,05,15,09,04,19.40
2014,05,15,09,05,19.40
2014,05,15,09,06,19.50
2014,05,15,09,07,19.50
2014,05,15,09,08,19.50
2014,05,15,09,09,19.50
2014,05,15,09,10,19.50
2014,05,15,09,11,19.50
2014,05,15,09,12,19.50
2014,05,15,09,13,19.40
2014,05,15,09,14,19.40
2014,05,15,09,15,19.40
2014,05,15,09,16,19.40
2014,05,15,09,17,19.40
2014,05,15,09,18,19.40
2014,05,15,09,19,19.40
2014,05,15,09,20,19.40
2014,05,15,09,21,19.40
2014,05,15,09,22,19.40
2014,05,15,09,23,19.50
2014,05,15,09,24,19.50
2014,05,15,09,25,19.50
2014,05,15,09,26,19.60
2014,05,15,09,27,19.60
2014,05,15,09,28,19.60
2014,05,15,09,29,19.60
2014,05,15,09,30,19.60
2014,05,15,09,31,19.60
2014,05,15,09,32,19.60
2014,05,15,09,33,19.70
2014,05,15,09,34,19.70
2014,05,15,09,35,19.70
2014,05,15,09,36,19.70
2014,05,15,09,37,19.80
2014,05,15,09,38,19.80
2014,05,15,09,39,19.80
2014,05,15,09,40,19.80
2014,05,15,09,41,19.80
2014,05,15,09,42,19.80
2014,05,15,09,43,19.80
2014,05,15,09,44,19.80
2014,05,15,09,45,19.80
2014,05,15,09,46,19.80
2014,05,15,09,47,19.80
2014,05,15,09,48,19.80
2014,05,15,09,49,19.90
2014,05,15,09,50,19.90
2014,05,15,09,51,19.90
2014,05,15,09,52,19.90
2014,05,15,09,53,19.90
2014,05,15,09,54,19.90
2014,05,15,09,55,20.00
2014,05,15,09,56,20.00
2014,05,15,09,57,20.10
2014,05,15,09,58,20.20
2014,05,15,09,59,20.30
2014,05,15,10,00,20.30
2014,05,15,10,01,20.40
2014,05,15,10,02,20.40
2014,05,15,10,03,20.40
2014,05,15,10,04,20.40
2014,05,15,10,05,20.50
2014,05,15,10,06,20.50
2014,05,15,10,07,20.50
2014,05,15,10,08,20.60
2014,05,15,10,09,20.60
2014,05,15,10,10,20.70
2014,05,15,10,11,20.80
2014,05,15,10,12,20.80
2014,05,15,10,13,20.90
2014,05,15,10,14,20.90
2014,05,15,10,15,20.90
2014,05,15,10,16,20.90
2014,05,15,10,17,20.80
2014,05,15,10,18,20.70
2014,05,15,10,19,20.50
2014,05,15,10,20,20.40
2014,05,15,10,21,20.30
2014,05,15,10,22,20.30
2014,05,15,10,23,20.20
2014,05,15,10,24,20.20
2014,05,15,10,25,20.30
2014,05,15,10,26,20.30
2014,05,15,10,27,20.40
2014,05,15,10,28,20.40
2014,05,15,10,29,20.50
2014,05,15,10,30,20.60
2014,05,15,10,31,20.60
2014,05,15,10,32,20.70
2014,05,15,10,33,20.80
2014,05,15,10,34,20.80
2014,05,15,10,35,20.90
2014,05,15,10,36,20.90
2014,05,15,10,37,21.00
2014,05,15,10,38,21.00
2014,05,15,10,39,21.10
2014,05,15,10,40,21.00
2014,05,15,10,41,21.00
2014,05,15,10,42,20.90
2014,05,15,10,43,20.90
2014,05,15,10,44,20.80
2014,05,15,10,45,20.80
2014,05,15,10,46,20.80
2014,05,15,10,47,20.70
2014,05,15,10,48,20.60
2014,05,15,10,49,20.50
2014,05,15,10,50,20.50
2014,05,15,10,51,20.40
2014,05,15,10,52,20.30
2014,05,15,10,53,20.20
2014,05,15,10,54,20.20
2014,05,15,10,55,20.10
2014,05,15,10,56,20.10
2014,05,15,10,57,20.10
2014,05,15,10,58,20.10
2014,05,15,10,59,20.20
2014,05,15,11,00,20.20
2014,05,15,11,01,20.20
2014,05,15,11,02,20.20
2014,05,15,11,03,20.30
2014,05,15,11,04,20.40
2014,05,15,11,05,20.40
2014,05,15,11,06,20.50
2014,05,15,11,07,20.60
2014,05,15,11,08,20.60
2014,05,15,11,09,20.60
2014,05,15,11,10,20.60
2014,05,15,11,11,20.60
2014,05,15,11,12,20.60
2014,05,15,11,13,20.60
2014,05,15,11,14,20.70
2014,05,15,11,15,20.80
2014,05,15,11,16,20.90
2014,05,15,11,17,20.90
2014,05,15,11,18,21.00
2014,05,15,11,19,21.10
2014,05,15,11,20,21.10
2014,05,15,11,21,21.20
2014,05,15,11,22,21.20
2014,05,15,11,23,21.20
2014,05,15,11,24,21.10
2014,05,15,11,25,21.10
2014,05,15,11,26,21.10
2014,05,15,11,27,21.00
2014,05,15,11,28,21.00
2014,05,15,11,29,20.90
2014,05,15,11,30,21.00
2014,05,15,11,31,21.00
2014,05,15,11,32,21.00
2014,05,15,11,33,20.90
2014,05,15,11,34,20.90
2014,05,15,11,35,20.80
2014,05,15,11,36,20.80
2014,05,15,11,37,20.70
2014,05,15,11,38,20.70
2014,05,15,11,39,20.80
2014,05,15,11,40,20.80
2014,05,15,11,41,20.80
2014,05,15,11,42,20.80
2014,05,15,11,43,20.80
2014,05,15,11,44,20.80
2014,05,15,11,45,20.80
2014,05,15,11,46,20.80
2014,05,15,11,47,20.90
2014,05,15,11,48,20.90
2014,05,15,11,49,20.90
2014,05,15,11,50,20.90
2014,05,15,11,51,21.00
2014,05,15,11,52,21.00
2014,05,15,11,53,21.00
2014,05,15,11,54,21.10
2014,05,15,11,55,21.20
2014,05,15,11,56,21.20
2014,05,15,11,57,21.30
2014,05,15,11,58,21.40
2014,05,15,11,59,21.40
2014,05,15,12,00,21.60
2014,05,15,12,01,21.60
2014,05,15,12,02,21.70
2014,05,15,12,03,21.70
2014,05,15,12,04,21.60
2014,05,15,12,05,21.60
2014,05,15,12,06,21.50
2014,05,15,12,07,21.50
2014,05,15,12,08,21.40
2014,05,15,12,09,21.40
2014,05,15,12,10,21.40
2014,05,15,12,11,21.40
2014,05,15,12,12,21.40
2014,05,15,12,13,21.40
2014,05,15,12,14,21.30
2014,05,15,12,15,21.30
2014,05,15,12,16,21.30
2014,05,15,12,17,21.30
2014,05,15,12,18,21.40
2014,05,15,12,19,21.40
2014,05,15,12,20,21.40
2014,05,15,12,21,21.40
2014,05,15,12,22,21.50
2014,05,15,12,23,21.60
2014,05,15,12,24,21.70
2014,05,15,12,25,21.70
2014,05,15,12,26,21.70
2014,05,15,12,27,21.80
2014,05,15,12,28,21.80
2014,05,15,12,29,21.80
2014,05,15,12,30,21.90
2014,05,15,12,31,21.90
2014,05,15,12,32,21.90
2014,05,15,12,33,21.80
2014,05,15,12,34,21.80
2014,05,15,12,35,21.80
2014,05,15,12,36,21.90
2014,05,15,12,37,22.10
2014,05,15,12,38,22.20
2014,05,15,12,39,22.30
2014,05,15,12,40,22.30
2014,05,15,12,41,22.30
2014,05,15,12,42,22.30
2014,05,15,12,43,22.30
2014,05,15,12,44,22.30
2014,05,15,12,45,22.30
2014,05,15,12,46,22.30
2014,05,15,12,47,22.30
2014,05,15,12,48,22.40
2014,05,15,12,49,22.40
2014,05,15,12,50,22.30
2014,05,15,12,51,22.30
2014,05,15,12,52,22.30
2014,05,15,12,53,22.30
2014,05,15,12,54,22.30
2014,05,15,12,55,22.20
2014,05,15,12,56,22.20
2014,05,15,12,57,22.20
2014,05,15,12,58,22.20
2014,05,15,12,59,22.30
2014,05,15,13,00,22.40
2014,05,15,13,01,22.50
2014,05,15,13,02,22.60
2014,05,15,13,03,22.60
2014,05,15,13,04,22.50
2014,05,15,13,05,22.60
2014,05,15,13,06,22.60
2014,05,15,13,07,22.80
2014,05,15,13,08,22.90
2014,05,15,13,09,23.10
2014,05,15,13,10,23.20
2014,05,15,13,11,23.30
2014,05,15,13,12,23.30
2014,05,15,13,13,23.40
2014,05,15,13,14,23.40
2014,05,15,13,15,23.50
2014,05,15,13,16,23.50
2014,05,15,13,17,23.60
2014,05,15,13,18,23.70
2014,05,15,13,19,23.70
2014,05,15,13,20,23.70
2014,05,15,13,21,23.70
2014,05,15,13,22,23.70
2014,05,15,13,23,23.70
2014,05,15,13,24,23.80
2014,05,15,13,25,23.80
2014,05,15,13,26,23.80
2014,05,15,13,27,23.80
2014,05,15,13,28,23.80
2014,05,15,13,29,23.80
2014,05,15,13,30,23.70
2014,05,15,13,31,23.50
2014,05,15,13,32,23.40
2014,05,15,13,33,23.30
2014,05,15,13,34,23.20
2014,05,15,13,35,23.10
2014,05,15,13,36,23.00
2014,05,15,13,37,22.90
2014,05,15,13,38,22.90
2014,05,15,13,39,22.80
2014,05,15,13,40,22.70
2014,05,15,13,41,22.60
2014,05,15,13,42,22.60
2014,05,15,13,43,22.60
2014,05,15,13,44,22.50
2014,05,15,13,45,22.50
2014,05,15,13,46,22.60
2014,05,15,13,47,22.70
2014,05,15,13,48,22.80
2014,05,15,13,49,22.90
2014,05,15,13,50,23.00
2014,05,15,13,51,23.10
2014,05,15,13,52,23.00
2014,05,15,13,53,22.90
2014,05,15,13,54,22.90
2014,05,15,13,55,22.90
2014,05,15,13,56,22.90
2014,05,15,13,57,22.90
2014,05,15,13,58,22.80
2014,05,15,13,59,22.70
2014,05,15,14,00,22.70
2014,05,15,14,01,22.60
2014,05,15,14,02,22.60
2014,05,15,14,03,22.60
2014,05,15,14,04,22.50
2014,05,15,14,05,22.40
2014,05,15,14,06,22.30
2014,05,15,14,07,22.30
2014,05,15,14,08,22.20
2014,05,15,14,09,22.10
2014,05,15,14,10,22.10
2014,05,15,14,11,22.20
2014,05,15,14,12,22.20
2014,05,15,14,13,22.30
2014,05,15,14,14,22.30
2014,05,15,14,15,22.30
2014,05,15,14,16,22.30
2014,05,15,14,17,22.40
2014,05,15,14,18,22.40
2014,05,15,14,19,22.40
2014,05,15,14,20,22.50
2014,05,15,14,21,22.50
2014,05,15,14,22,22.60
2014,05,15,14,23,22.60
2014,05,15,14,24,22.50
2014,05,15,14,25,22.50
2014,05,15,14,26,22.50
2014,05,15,14,27,22.50
2014,05,15,14,28,22.40
2014,05,15,14,29,22.40
2014,05,15,14,30,22.30
2014,05,15,14,31,22.30
2014,05,15,14,32,22.30
2014,05,15,14,33,22.30
2014,05,15,14,34,22.30
2014,05,15,14,35,22.30
2014,05,15,14,36,22.30
2014,05,15,14,37,22.40
2014,05,15,14,38,22.40
2014,05,15,14,39,22.40
2014,05,15,14,40,22.40
2014,05,15,14,41,22.40
2014,05,15,14,42,22.40
2014,05,15,14,43,22.40
2014,05,15,14,44,22.40
2014,05,15,14,45,22.40
2014,05,15,14,46,22.40
2014,05,15,14,47,22.40
2014,05,15,14,48,22.30
2014,05,15,14,49,22.30
2014,05,15,14,50,22.40
2014,05,15,14,51,22.50
2014,05,15,14,52,22.70
2014,05,15,14,53,22.80
2014,05,15,14,54,22.90
2014,05,15,14,55,22.90
2014,05,15,14,56,22.90
2014,05,15,14,57,22.90
2014,05,15,14,58,22.90
2014,05,15,14,59,22.90
2014,05,15,15,00,22.90
2014,05,15,15,01,22.90
2014,05,15,15,02,22.80
2014,05,15,15,03,22.80
2014,05,15,15,04,22.80
2014,05,15,15,05,22.80
2014,05,15,15,06,22.80
2014,05,15,15,07,22.80
2014,05,15,15,08,22.70
2014,05,15,15,09,22.70
2014,05,15,15,10,22.70
2014,05,15,15,11,22.70
2014,05,15,15,12,22.70
2014,05,15,15,13,22.70
2014,05,15,15,14,22.70
2014,05,15,15,15,22.70
2014,05,15,15,16,22.70
2014,05,15,15,17,22.70
2014,05,15,15,18,22.70
2014,05,15,15,19,22.70
2014,05,15,15,20,22.60
2014,05,15,15,21,22.60
2014,05,15,15,22,22.60
2014,05,15,15,23,22.60
2014,05,15,15,24,22.60
2014,05,15,15,25,22.60
2014,05,15,15,26,22.60
2014,05,15,15,27,22.60
2014,05,15,15,28,22.60
2014,05,15,15,29,22.70
2014,05,15,15,30,22.70
2014,05,15,15,31,22.70
2014,05,15,15,32,22.70
2014,05,15,15,33,22.70
2014,05,15,15,34,22.70
2014,05,15,15,35,22.70
2014,05,15,15,36,22.80
2014,05,15,15,37,22.80
2014,05,15,15,38,22.80
2014,05,15,15,39,22.80
2014,05,15,15,40,22.80
2014,05,15,15,41,22.70
2014,05,15,15,42,22.70
2014,05,15,15,43,22.60
2014,05,15,15,44,22.60
2014,05,15,15,45,22.60
2014,05,15,15,46,22.60
2014,05,15,15,47,22.60
2014,05,15,15,48,22.60
2014,05,15,15,49,22.60
2014,05,15,15,50,22.60
2014,05,15,15,51,22.70
2014,05,15,15,52,22.70
2014,05,15,15,53,22.80
2014,05,15,15,54,22.80
2014,05,15,15,55,22.80
2014,05,15,15,56,22.90
2014,05,15,15,57,22.90
2014,05,15,15,58,23.00
2014,05,15,15,59,23.10
2014,05,15,16,00,23.20
2014,05,15,16,01,23.30
2014,05,15,16,02,23.30
2014,05,15,16,03,23.40
2014,05,15,16,04,23.40
2014,05,15,16,05,23.40
2014,05,15,16,06,23.50
2014,05,15,16,07,23.50
2014,05,15,16,08,23.60
2014,05,15,16,09,23.60
2014,05,15,16,10,23.60
2014,05,15,16,11,23.60
2014,05,15,16,12,23.60
2014,05,15,16,13,23.60
2014,05,15,16,14,23.70
2014,05,15,16,15,23.80
2014,05,15,16,16,23.80
2014,05,15,16,17,23.90
2014,05,15,16,18,23.90
2014,05,15,16,19,23.90
2014,05,15,16,20,23.90
2014,05,15,16,21,23.90
2014,05,15,16,22,24.00
2014,05,15,16,23,24.10
2014,05,15,16,24,24.10
2014,05,15,16,25,24.10
2014,05,15,16,26,24.20
2014,05,15,16,27,24.20
2014,05,15,16,28,24.10
2014,05,15,16,29,24.10
2014,05,15,16,30,24.00
2014,05,15,16,31,23.90
2014,05,15,16,32,23.90
2014,05,15,16,33,23.80
2014,05,15,16,34,23.80
2014,05,15,16,35,23.90
2014,05,15,16,36,23.90
2014,05,15,16,37,23.80
2014,05,15,16,38,23.80
2014,05,15,16,39,23.80
2014,05,15,16,40,23.80
2014,05,15,16,41,23.90
2014,05,15,16,42,23.90
2014,05,15,16,43,24.00
2014,05,15,16,44,24.00
2014,05,15,16,45,24.00
2014,05,15,16,46,24.10
2014,05,15,16,47,24.10
2014,05,15,16,48,24.00
2014,05,15,16,49,23.90
2014,05,15,16,50,24.00
2014,05,15,16,51,24.00
2014,05,15,16,52,24.00
2014,05,15,16,53,24.10
2014,05,15,16,54,24.10
2014,05,15,16,55,24.10
2014,05,15,16,56,24.20
2014,05,15,16,57,24.20
2014,05,15,16,58,24.10
2014,05,15,16,59,24.00
2014,05,15,17,00,24.00
2014,05,15,17,01,23.90
2014,05,15,17,02,23.90
2014,05,15,17,03,23.80
2014,05,15,17,04,23.80
2014,05,15,17,05,23.70
2014,05,15,17,06,23.70
2014,05,15,17,07,23.60
2014,05,15,17,08,23.60
2014,05,15,17,09,23.60
2014,05,15,17,10,23.60
2014,05,15,17,11,23.60
2014,05,15,17,12,23.60
2014,05,15,17,13,23.50
2014,05,15,17,14,23.50
2014,05,15,17,15,23.40
2014,05,15,17,16,23.40
2014,05,15,17,17,23.30
2014,05,15,17,18,23.40
2014,05,15,17,19,23.40